Address 0x2f0a6033dea6663796160fd7cade709c3893efa6

 
Ad
Ad
Txn Hash
Block
From
To
Value [Txn Fee]
0xc83a8dd26149c10628055c8ce1e335aec279dc15d9728e4a17e73a0a767eeba867235762021-04-20 6:30:561 day 1 hr ago0x2f0a6033dea6663796160fd7cade709c3893efa6OUT Binance: BUSD Stablecoin0 BNB0.000105695
0x480061ffe7b933dbc413986ae7fbeb8030d952ae8f0be7e5772c66e7426cfc9767222522021-04-20 5:24:411 day 2 hrs ago0x2f0a6033dea6663796160fd7cade709c3893efa6OUT PancakeSwap: Router0.04 BNB0.00056873
0x794f2819211187ff8d81a616dfc93ad448cabae4e9a3f81fb559134b52f7d17367222352021-04-20 5:23:501 day 2 hrs ago0x2f0a6033dea6663796160fd7cade709c3893efa6OUT PancakeSwap: Router0 BNB0.00098849
0xe0303cf7038c1ac423326a6b0c2ed480964ed2e906dbd8ddf55929524426964d67201112021-04-20 3:37:381 day 3 hrs ago0x2f0a6033dea6663796160fd7cade709c3893efa6OUT SafeLight: SAFELIGHT Token0 BNB0.00022274
0x3b918e57c81261914979b6490b0fde50d51e5b22a67147b58cfd602115a0d27167200442021-04-20 3:34:171 day 3 hrs ago0x2f0a6033dea6663796160fd7cade709c3893efa6OUT PancakeSwap: Router0.047 BNB0.00092447
0x0af84d8287fd29a183bd68764f1ab162be9be6b8248bb7a872bdc5418435cf0267195942021-04-20 3:11:471 day 4 hrs ago0x2f0a6033dea6663796160fd7cade709c3893efa6OUT PancakeSwap: Router0 BNB0.00246377
0x705f03127f6c3d36ae402a136bde4832e1e719cb4d4497776ddf3a0223f5981867192562021-04-20 2:54:531 day 4 hrs ago0x2f0a6033dea6663796160fd7cade709c3893efa6OUT 0x81c9b6d72d6196cfb8a8f4605cea554a05ea30ec0 BNB0.000378325
0xb4e7290ca0892d5f2175bd3bc5a232a2f16a7dbb14fab0fcdb5ba5e73c24fb8967096772021-04-19 18:52:271 day 12 hrs ago0x2f0a6033dea6663796160fd7cade709c3893efa6OUT 0x8a9030c0ed9a5b9c7ab39ebfee11d90af9945f6f0 BNB0.00022274
0x2968481807eae48f48e4c8bd455633402e5aba536e42a00a43b18d01f177eaa867095562021-04-19 18:46:241 day 12 hrs ago0x2f0a6033dea6663796160fd7cade709c3893efa6OUT PancakeSwap: Router0.05 BNB0.00204383
0x3cdb2f44eb99c0edb0d96bd822f208dbfaff672b750fa61ad15e359ca3b1659067094952021-04-19 18:43:211 day 12 hrs ago0x2f0a6033dea6663796160fd7cade709c3893efa6OUT PancakeSwap: Router0 BNB0.00128355
0x28fb741705935ca295327ea76a5f0307dd76dbb6c2af38d311034ce120fed26567094922021-04-19 18:43:121 day 12 hrs ago0x2f0a6033dea6663796160fd7cade709c3893efa6OUT PancakeSwap: Router0 BNB0.00098849
0x4b73b296de23191b1ba1520b0e25f745e6002e8005b4d7f9708e6b75b6aeb30e67093802021-04-19 18:37:361 day 12 hrs ago0x2f0a6033dea6663796160fd7cade709c3893efa6OUT PancakeSwap: Router0 BNB0.00098855
0x14de3c86c23e1a8e453f58ea3759ef28afa8d30bb33af44955d074394285f52067036232021-04-19 13:48:571 day 17 hrs ago0x2f0a6033dea6663796160fd7cade709c3893efa6OUT xSpace Finance: XSPACE Token0 BNB0.00022274
0x9bf064cf42626c95d54afe4f905fb1870ce2c29bd7d12df0cd37243fcb66774f67033572021-04-19 13:35:391 day 17 hrs ago0x2f0a6033dea6663796160fd7cade709c3893efa6OUT 0x23481f4d3ac4642d2f45d014a514b45b0338b9270 BNB0.000378325
0xbe73744ccaef05a26a0a2903e4c487c56ad0aac2b2a5ef5574d2c6540c1921be67017352021-04-19 12:14:331 day 19 hrs ago0x2f0a6033dea6663796160fd7cade709c3893efa6OUT PancakeSwap: Router0.016797156508099 BNB0.00092447
0xc5a3338a28ba2c8511e2bd55845717105878c1b097053cb00f3595294f2502a967017042021-04-19 12:13:001 day 19 hrs ago0x2f0a6033dea6663796160fd7cade709c3893efa6OUT PancakeSwap: Router0 BNB0.00092753
0x6729a492224c798883b343265de24cd3e11a37b78e4b5472520a1e383f7b5b8f66995062021-04-19 10:22:411 day 21 hrs ago0x2f0a6033dea6663796160fd7cade709c3893efa6OUT 0x9897d2577754c6a2b6c4ab71357a4369d17817580 BNB0.00022274
0x62e01415936a22c15f57e74247beceb72569295202c63d216bafa0db6b4ab68866994772021-04-19 10:21:141 day 21 hrs ago0x2f0a6033dea6663796160fd7cade709c3893efa6OUT PancakeSwap: Router0.028 BNB0.00116052
0x9c69de87bc70e7938aea68975e0fa7650cc19bf8f2a17399dee925c3fbc0679266992722021-04-19 10:10:591 day 21 hrs ago0xe9967f91ab5754a610f28da8e7e4f4fbd5455f19 IN 0x2f0a6033dea6663796160fd7cade709c3893efa60.0308641975 BNB0.000105
0xee8d14fcda72a11cbf0d2da7d06d77d98610301437847c39e9201d557faf75c266974532021-04-19 8:34:281 day 22 hrs ago0x2f0a6033dea6663796160fd7cade709c3893efa6OUT Pitbull: PIT Token0 BNB0.00051596
0xe2cfbdba364561cb274f421c2647343d6a9c95e875dfefa7a2fcdc52e9bd0a4f66817722021-04-18 19:30:032 days 12 hrs ago0x2f0a6033dea6663796160fd7cade709c3893efa6OUT 0xe285510e5c14c2b8ff46147d9145f034b8ff073b0 BNB0.00022274
0x90a06cffc1b2981e6715c30c52b990e9c9574aeafb41cd924cfcda73a83b0b5866817422021-04-18 19:28:332 days 12 hrs ago0x2f0a6033dea6663796160fd7cade709c3893efa6OUT PancakeSwap: Router0.03 BNB0.000923885
0x7a1d50962604b77a141a12435200e6ff655a1bc526206224fa9685f001028c8966816802021-04-18 19:25:272 days 12 hrs ago0x2f0a6033dea6663796160fd7cade709c3893efa6OUT PancakeSwap: Router0 BNB0.000819535
0x63a14a293d455ce0a9ae59582a92b667594af6734ee4e8c0ab090dc2dda7b21666810022021-04-18 18:51:332 days 12 hrs ago0x2f0a6033dea6663796160fd7cade709c3893efa6OUT Vancat: VANCAT Token0 BNB0.000222625
0x50ccd09941d6a6ede9be5521ee62d97ef2380cf68eee60d26fc359f3f2c155de66809952021-04-18 18:51:122 days 12 hrs ago0x2f0a6033dea6663796160fd7cade709c3893efa6OUT PancakeSwap: Router0.002 BNB0.00093905
[ Download CSV Export 
Latest 11 internal transactions
Parent Txn Hash Block From To Value
0x794f2819211187ff8d81a616dfc93ad448cabae4e9a3f81fb559134b52f7d17367222352021-04-20 5:23:501 day 2 hrs ago PancakeSwap: Router0x2f0a6033dea6663796160fd7cade709c3893efa60.037700831320637408 BNB
0x0af84d8287fd29a183bd68764f1ab162be9be6b8248bb7a872bdc5418435cf0267195942021-04-20 3:11:471 day 4 hrs ago PancakeSwap: Router0x2f0a6033dea6663796160fd7cade709c3893efa60.048532142237558936 BNB
0x3cdb2f44eb99c0edb0d96bd822f208dbfaff672b750fa61ad15e359ca3b1659067094952021-04-19 18:43:211 day 12 hrs ago PancakeSwap: Router0x2f0a6033dea6663796160fd7cade709c3893efa60.012954719552339182 BNB
0x28fb741705935ca295327ea76a5f0307dd76dbb6c2af38d311034ce120fed26567094922021-04-19 18:43:121 day 12 hrs ago PancakeSwap: Router0x2f0a6033dea6663796160fd7cade709c3893efa60.015292207902255462 BNB
0x4b73b296de23191b1ba1520b0e25f745e6002e8005b4d7f9708e6b75b6aeb30e67093802021-04-19 18:37:361 day 12 hrs ago PancakeSwap: Router0x2f0a6033dea6663796160fd7cade709c3893efa60.032390474865463582 BNB
0xc5a3338a28ba2c8511e2bd55845717105878c1b097053cb00f3595294f2502a967017042021-04-19 12:13:001 day 19 hrs ago PancakeSwap: Router0x2f0a6033dea6663796160fd7cade709c3893efa60.016777120224264807 BNB
0x7a1d50962604b77a141a12435200e6ff655a1bc526206224fa9685f001028c8966816802021-04-18 19:25:272 days 12 hrs ago PancakeSwap: Router0x2f0a6033dea6663796160fd7cade709c3893efa60.031021543783834196 BNB
0xb2488e2e805c1e6b8179a488d00b8f4b63ce44481267e1886c0b45e9621da44e66041732021-04-16 2:39:245 days 4 hrs ago PancakeSwap: Router0x2f0a6033dea6663796160fd7cade709c3893efa60.002664293007314483 BNB
0xad021fa3f1b41b90118a38168b77ef64520196c5b987b05b0423db10a4aabd9d60197742021-03-26 14:25:2125 days 17 hrs ago 0x8ba8541453e54ce4098db0b2919bf42c4ebce69e0x2f0a6033dea6663796160fd7cade709c3893efa60.012813583165773954 BNB
0x8762fc62d408ed4d1789acfbbcaaf66012d80e86133bc77a9bf3453d0681622259933042021-03-25 16:12:3226 days 15 hrs ago PancakeSwap: Router0x2f0a6033dea6663796160fd7cade709c3893efa60.016281842241603601 BNB
0xda3bcce4d6037809685000ecc59ed0445b9a2039175c283c0ee75b9373f1dbd157933852021-03-18 16:45:3633 days 14 hrs ago PancakeSwap: Router0x2f0a6033dea6663796160fd7cade709c3893efa60.013822818196880858 BNB
[ Download CSV Export 
Loading

Contract Name:
0 BNB

Compiler Version
0

Optimization Enabled:
0 BNB

Other Settings:
-NA-
Block Transaction Gas Used Reward
Age Block Fee Address BC Fee Address Voting Power Jailed Incoming
Block Uncle Number Difficulty Gas Used Reward
Loading
Loading
Make sure to use the "Vote Down" button for any spammy posts, and the "Vote Up" for interesting conversations.